Change the Weather History Date:

Monday, January 14, 2013

  Actual Average (KDMN) Record (KDMN)
Temperature  
Mean Temperature 20 °F 42 °F  
Max Temperature 32 °F 57 °F 69 °F (1957)
Min Temperature 8 °F 27 °F 1 °F (1964)
Degree Days  
Heating Degree Days 45    
Moisture  
Dew Point -3 °F    
Average Humidity 39    
Maximum Humidity 67    
Minimum Humidity 18    
Precipitation  
Precipitation 0.00 in 0.02 in 0.62 in (2015)
Month to date precipitation 0.25  
Year to date precipitation 0.25  
Sea Level Pressure  
Sea Level Pressure 29.98 in    
Wind  
Wind Speed 9 mph (NW)    
Max Wind Speed 20 mph    
Max Gust Speed 28 mph    
Visibility 10 miles    
Events      
T = Trace of Precipitation, MM = Missing Value Source: NWS Daily Summary

Daily Weather History Graph

Daily Weather History Graph

Search for Another Location

Airport or City:

Trip Planner

Search our weather history database for the weather conditions in past years. The results will help you decide how hot, cold, wet, or windy it might be!

Date:

Astronomy

Jan. 14, 2013 Rise Set
Actual Time 7:14 AM MST 5:29 PM MST
Civil Twilight 6:48 AM MST 5:55 PM MST
Nautical Twilight 6:18 AM MST 6:25 PM MST
Astronomical Twilight 5:48 AM MST 6:55 PM MST
Moon 9:03 AM MST (1/14) 9:02 PM MST (1/14)
Length of Visible Light 11h 07m
Length of Day
10h 14m
Waxing Crescent, 12% of the Moon is Illuminated
Jan 14
Waxing Crescent
Jan 18
First Quarter
Jan 26
Full
Feb 3
Last Quarter
Feb 10
New

Hourly Weather History & Observations

Time (MST) Temp. Windchill Dew Point Humidity Pressure Visibility Wind Dir Wind Speed Gust Speed Precip Events Conditions
12:15 AM 10.4 °F -0.4 °F -4.0 °F 52% 29.95 in 10.0 mi NE 6.9 mph - N/A   Clear
12:35 AM 10.4 °F -0.4 °F -2.2 °F 57% 29.95 in 10.0 mi NNE 6.9 mph - N/A   Clear
12:55 AM 12.2 °F -0.2 °F -2.2 °F 53% 29.95 in 10.0 mi North 9.2 mph - N/A   Clear
1:55 AM 14.0 °F 1.2 °F -2.2 °F 49% 29.95 in 10.0 mi North 10.4 mph - N/A   Clear
2:15 AM 14.0 °F 1.2 °F -0.4 °F 53% 29.95 in 10.0 mi North 10.4 mph - N/A   Clear
2:35 AM 12.2 °F -0.2 °F -0.4 °F 57% 29.96 in 10.0 mi North 9.2 mph - N/A   Clear
2:55 AM 12.2 °F 1.7 °F -0.4 °F 57% 29.96 in 10.0 mi North 6.9 mph - N/A   Clear
3:15 AM 14.0 °F 2.0 °F -0.4 °F 53% 29.96 in 10.0 mi North 9.2 mph - N/A   Clear
3:35 AM 14.0 °F 2.9 °F -0.4 °F 53% 29.95 in 10.0 mi North 8.1 mph - N/A   Clear
3:55 AM 14.0 °F 3.9 °F -0.4 °F 53% 29.94 in 10.0 mi North 6.9 mph - N/A   Clear
4:35 AM 12.2 °F 2.9 °F -0.4 °F 57% 29.93 in 10.0 mi NNW 5.8 mph - N/A   Clear
4:55 AM 10.4 °F -0.4 °F -0.4 °F 62% 29.93 in 10.0 mi NW 6.9 mph - N/A   Clear
5:15 AM 10.4 °F 0.8 °F -0.4 °F 62% 29.93 in 10.0 mi NNW 5.8 mph - N/A   Clear
5:35 AM 8.6 °F 0.1 °F -0.4 °F 67% 29.93 in 10.0 mi North 4.6 mph - N/A   Clear
5:55 AM 8.6 °F -1.3 °F -2.2 °F 62% 29.93 in 10.0 mi North 5.8 mph - N/A   Clear
6:15 AM 8.6 °F -1.3 °F -2.2 °F 62% 29.94 in 10.0 mi NNW 5.8 mph - N/A   Clear
6:35 AM 8.6 °F 0.1 °F -0.4 °F 67% 29.94 in 10.0 mi NNE 4.6 mph - N/A   Clear
6:55 AM 8.6 °F 0.1 °F -2.2 °F 62% 29.95 in 10.0 mi NE 4.6 mph - N/A   Clear
7:15 AM 8.6 °F 0.1 °F -2.2 °F 62% 29.95 in 10.0 mi NE 4.6 mph - N/A   Clear
7:35 AM 8.6 °F 0.1 °F -0.4 °F 67% 29.96 in 10.0 mi NNE 4.6 mph - N/A   Clear
7:55 AM 14.0 °F 8.2 °F -0.4 °F 53% 29.97 in 10.0 mi NE 3.5 mph - N/A   Clear
8:15 AM 17.6 °F 12.3 °F 1.4 °F 49% 29.98 in 10.0 mi NNW 3.5 mph - N/A   Clear
8:35 AM 23.0 °F - 1.4 °F 39% 29.98 in 10.0 mi Calm Calm - N/A   Clear
8:55 AM 24.8 °F - 1.4 °F 36% 29.99 in 10.0 mi Calm Calm - N/A   Clear
9:15 AM 26.6 °F 20.0 °F 1.4 °F 34% 29.99 in 10.0 mi South 5.8 mph - N/A   Clear
9:35 AM 26.6 °F 22.6 °F 1.4 °F 34% 29.99 in 10.0 mi SSE 3.5 mph - N/A   Clear
9:55 AM 26.6 °F 21.2 °F 1.4 °F 34% 29.99 in 10.0 mi South 4.6 mph - N/A   Clear
10:15 AM 28.4 °F 23.3 °F 1.4 °F 31% 29.99 in 10.0 mi WSW 4.6 mph - N/A   Clear
10:35 AM 28.4 °F 24.6 °F 1.4 °F 31% 29.98 in 10.0 mi South 3.5 mph - N/A   Clear
10:55 AM 32.0 °F 24.8 °F -0.4 °F 25% 29.97 in 10.0 mi West 8.1 mph 17.3 mph N/A   Clear
11:15 AM 32.0 °F 21.2 °F -2.2 °F 23% 29.96 in 10.0 mi West 16.1 mph 20.7 mph N/A   Clear
11:35 AM 32.0 °F 21.6 °F -4.0 °F 21% 29.96 in 10.0 mi West 15.0 mph 23.0 mph N/A   Clear
11:55 AM 32.0 °F 22.5 °F -4.0 °F 21% 29.95 in 10.0 mi WNW 12.7 mph 24.2 mph N/A   Clear
12:15 PM 32.0 °F 22.1 °F -4.0 °F 21% 29.94 in 10.0 mi WNW 13.8 mph 21.9 mph N/A   Clear
12:35 PM 32.0 °F 22.1 °F -4.0 °F 21% 29.93 in 10.0 mi West 13.8 mph 23.0 mph N/A   Clear
12:55 PM 32.0 °F 20.1 °F -5.8 °F 20% 29.93 in 10.0 mi WNW 19.6 mph 26.5 mph N/A   Clear
1:15 PM 32.0 °F 21.6 °F -5.8 °F 20% 29.93 in 10.0 mi NW 15.0 mph 25.3 mph N/A   Clear
1:35 PM 32.0 °F 20.8 °F -5.8 °F 20% 29.93 in 10.0 mi WNW 17.3 mph 26.5 mph N/A   Clear
1:55 PM 32.0 °F 20.1 °F -7.6 °F 18% 29.94 in 10.0 mi WNW 19.6 mph 27.6 mph N/A   Clear
2:35 PM 32.0 °F 20.5 °F -7.6 °F 18% 29.94 in 10.0 mi WNW 18.4 mph 26.5 mph N/A   Clear
2:55 PM 32.0 °F 20.1 °F -7.6 °F 18% 29.95 in 10.0 mi West 19.6 mph 25.3 mph N/A   Clear
3:15 PM 32.0 °F 22.1 °F -7.6 °F 18% 29.96 in 10.0 mi WNW 13.8 mph 19.6 mph N/A   Clear
3:35 PM 32.0 °F 21.2 °F -7.6 °F 18% 29.97 in 10.0 mi West 16.1 mph 23.0 mph N/A   Clear
3:55 PM 32.0 °F 21.2 °F -7.6 °F 18% 29.97 in 10.0 mi WNW 16.1 mph 20.7 mph N/A   Clear
4:15 PM 32.0 °F 22.5 °F -5.8 °F 20% 29.98 in 10.0 mi WNW 12.7 mph 18.4 mph N/A   Clear
4:35 PM 32.0 °F 24.2 °F -4.0 °F 21% 29.99 in 10.0 mi West 9.2 mph - N/A   Clear
4:55 PM 30.2 °F 21.3 °F -4.0 °F 23% 30.00 in 10.0 mi WNW 10.4 mph 16.1 mph N/A   Clear
5:15 PM 28.4 °F 19.1 °F -4.0 °F 25% 30.00 in 10.0 mi West 10.4 mph - N/A   Clear
5:35 PM 26.6 °F 17.5 °F -4.0 °F 26% 30.01 in 10.0 mi West 9.2 mph - N/A   Clear
5:55 PM 26.6 °F 18.2 °F -2.2 °F 29% 30.02 in 10.0 mi West 8.1 mph - N/A   Clear
6:15 PM 24.8 °F 17.9 °F -2.2 °F 31% 30.03 in 10.0 mi West 5.8 mph - N/A   Clear
6:35 PM 21.2 °F 12.6 °F -4.0 °F 33% 30.03 in 10.0 mi WNW 6.9 mph - N/A   Clear
6:55 PM 15.8 °F 3.4 °F -5.8 °F 38% 30.03 in 10.0 mi NW 10.4 mph - N/A   Clear
7:15 PM 15.8 °F 2.1 °F -5.8 °F 38% 30.03 in 10.0 mi NW 12.7 mph - N/A   Clear
7:35 PM 17.6 °F 4.3 °F -4.0 °F 38% 30.02 in 10.0 mi NNW 12.7 mph - N/A   Clear
7:55 PM 19.4 °F 7.2 °F -2.2 °F 39% 30.02 in 10.0 mi North 11.5 mph - N/A   Clear
8:15 PM 19.4 °F 7.2 °F -2.2 °F 39% 30.02 in 10.0 mi North 11.5 mph - N/A   Clear
8:35 PM 17.6 °F 3.7 °F -2.2 °F 42% 30.02 in 10.0 mi North 13.8 mph - N/A   Clear
8:55 PM 17.6 °F 4.3 °F -2.2 °F 42% 30.02 in 10.0 mi North 12.7 mph - N/A   Clear
9:15 PM 19.4 °F 6.6 °F -2.2 °F 39% 30.02 in 10.0 mi North 12.7 mph 23.0 mph N/A   Clear
9:35 PM 19.4 °F 5.5 °F -2.2 °F 39% 30.01 in 10.0 mi North 15.0 mph - N/A   Clear
9:55 PM 19.4 °F 5.5 °F -2.2 °F 39% 30.01 in 10.0 mi North 15.0 mph - N/A   Clear
10:15 PM 19.4 °F 7.9 °F -2.2 °F 39% 30.01 in 10.0 mi North 10.4 mph - N/A   Clear
10:35 PM 19.4 °F 9.5 °F -2.2 °F 39% 30.01 in 10.0 mi North 8.1 mph - N/A   Clear
10:55 PM 17.6 °F 5.7 °F -4.0 °F 38% 30.01 in 10.0 mi WNW 10.4 mph - N/A   Clear
11:15 PM 17.6 °F 4.3 °F -4.0 °F 38% 30.02 in 10.0 mi WNW 12.7 mph - N/A   Clear
11:35 PM 15.8 °F 2.7 °F -2.2 °F 45% 30.03 in 10.0 mi NW 11.5 mph - N/A   Clear
11:55 PM 15.8 °F 2.1 °F -2.2 °F 45% 30.03 in 10.0 mi NW 12.7 mph - N/A   Clear